Location: �bnet
(46.9957°N, 8.4908°E)
Time: 03:28:22
(UTC+00:00)

Cosmos 1934 Rocket - Pass Details

Date: 11 May 2021
Orbit: 937 x 1000 km, 83.0° (Epoch: 23 June)

Event Time Altitude Azimuth Distance (km) Brightness Sun altitude
Rises 23:32:02 0° 352° (N) 3,658 8.3 -24.8°
Reaches altitude 10° 23:34:34 10° 354° (N) 2,699 7.3 -24.8°
Maximum altitude 23:40:44 78° 81° (E) 973 3.9 -24.7°
Enters shadow 23:42:13 54° 154° (SSE) 1,143 4.0 -24.7°
